Content
SEND FEEDBACK

Daily
Averages
Monthly
Summary
United States of America

SEGUIN - MAX STARCKE PARK, TEXAS


Home > North America > United States > Texas
Elevation: 460 feet     Latitude: 29 33N     Longitude: 097 58W

WEATHER
 
SELECT A DAY
Number of Records: 179,611;   Date Range: 10/8/98 - 8/28/14
 
SHARE

PRINT THIS DATA

[ ← Previous Day ]
WEATHER ALMANAC - JANUARY 31, 2013
[ Next Day → ]
[ °C ]   °F
Weather ElementAverageHighLow
Temperature47.5 °F66.9 °F (1:51 pm)28.9 °F (4:51 am)
Dewpoint19.7 °F28 °F (11:51 pm)15.1 °F (12:51 pm)
Humidity40.2 %72 % (7:51 am)14 % (1:51 pm)
Barometer30.24 in30.31 in (10:51 am)30.18 in (5:51 pm)
Wind Speed8.1 mph16.1 mph (10:51 am)
Wind Gust23 mph (1:51 pm)
Weather ElementAverage
Visibility10 mi
Wind DirectionSSE (140.9 °)

Weather ElementTotal
Precipitation---
Heating Degree Days17.1 (Base 65)
Averaged from 23 records on January 31, 2013
WEATHER CONDITIONS BREAKOUT
WIND DIRECTION BREAKOUT
WEATHER BY HOUR - JANUARY 31, 2013
[ °C ]   °F
Local TimeTemperatureDewpointHumidityBarometerVisibilityWind DirectionWind SpeedGust SpeedPrecipitationEventsConditions
1:51 AM30.9 °F21.0 °F67 %30.22 in10.0 miNorthClear
2:51 AM32.0 °F19.9 °F61 %30.20 in10.0 miNorthClear
3:51 AM30.0 °F19.0 °F64 %30.22 in10.0 miNorthClear
4:51 AM28.9 °F19.9 °F69 %30.22 in10.0 miNorthClear
5:51 AM30.0 °F19.0 °F64 %30.22 in10.0 miNorthClear
6:51 AM30.0 °F19.9 °F66 %30.25 in10.0 miNorthClear
7:51 AM30.9 °F23.0 °F72 %30.27 in10.0 miWSW (240°)8.1 mphClear
8:51 AM42.1 °F25.0 °F51 %30.29 in10.0 miWSW (240°)6.9 mphClear
9:51 AM52.0 °F19.9 °F28 %30.30 in10.0 miSW (230°)9.2 mphClear
10:51 AM59.0 °F17.1 °F20 %30.31 in10.0 miWSW (240°)16.1 mphClear
11:51 AM63.0 °F16.0 °F16 %30.29 in10.0 miNorthClear
12:51 PM64.9 °F15.1 °F15 %30.27 in10.0 miNorthClear
1:51 PM66.9 °F16.0 °F14 %30.22 in10.0 miSW (220°)16.1 mph23.0 mphClear
2:51 PM66.9 °F15.1 °F14 %30.19 in10.0 miSSW (210°)15.0 mphClear
3:51 PM66.9 °F16.0 °F14 %30.19 in10.0 miWSW (240°)12.7 mph16.1 mphClear
4:51 PM64.9 °F17.1 °F16 %30.19 in10.0 miWSW (250°)6.9 mphClear
5:51 PM57.9 °F18.0 °F21 %30.18 in10.0 miSSW (210°)5.8 mphClear
6:51 PM55.9 °F18.0 °F23 %30.20 in10.0 miSW (220°)4.6 mphClear
7:51 PM46.9 °F19.9 °F34 %30.25 in10.0 miNNW (330°)4.6 mphClear
8:51 PM43.0 °F21.0 °F42 %30.26 in10.0 miCalmClear
9:51 PM39.0 °F23.0 °F53 %30.27 in10.0 miSouth (170°)3.5 mphClear
10:51 PM44.1 °F27.0 °F51 %30.28 in10.0 miSSW (210°)8.1 mphClear
11:51 PM46.0 °F28.0 °F50 %30.27 in10.0 miSW (230°)4.6 mphClear
Hourly data recorded from KBAZ, located miles away from Seguin - Max Starcke Park, Texas







STORIES FROM OUR PARTNERS